Flag for Finland Weather past 2 weeks in Helsinki, Finland

30 °F


Feels Like: 30 °F
Forecast: 31 / 41 °F
Wind: 2 mph from Northwest

Location: Helsinki Malmi Airport

Current Time: Oct 8, 2015 at 12:57:14 AM

Latest Report: Oct 8, 2015 at 12:20 AM

Visibility: 10 mi

Pressure: 30.45 "Hg

Humidity: 86%

Dew point: 27 °F

Location of HelsinkiLocation

Historic Weather in Helsinki — Graph


Helsinki temperature yesterday

Maximum temperature yesterday: 45 °F (at 1:20 PM)
Minimum temperature yesterday: 23 °F (at 7:50 AM)
Average temperature yesterday: 34 °F

Past Weeks' High & Low Weather Summary

High63 °F (Sep 24, 12:50 PM)100% (Sep 24, 2:20 AM)30.66 "Hg (Sep 24, 2:20 AM)
Low23 °F (Oct 7, 7:50 AM)41% (Oct 3, 3:50 PM)29.56 "Hg (Oct 2, 3:50 PM)
Average50 °F80%30.12 "Hg
* Reported Sep 22 11:20 PM — Oct 7 11:50 PM, Helsinki, Weather by CustomWeather, © 2015

Note: Actual official high and low records may vary slightly from our data, if they occured in-between our weather recording intervals... More about our weather records


Helsinki weather history for previous 24 hours

Time TempWeatherWind HumidityBarometerVisibility
11:50 PM
Wed, Oct 7
28 °FClear.1 mph86%30.45 "Hg10 mi
11:20 PM30 °FClear.No wind86%30.45 "Hg10 mi
10:50 PM30 °FClear.No wind86%30.45 "Hg10 mi
10:20 PM32 °FPassing clouds.No wind80%30.45 "HgN/A
9:50 PM36 °FPassing clouds.1 mph65%30.45 "HgN/A
9:20 PM37 °FClear.2 mph65%30.45 "Hg10 mi
8:50 PM36 °FClear.No wind70%30.42 "Hg10 mi
8:20 PM34 °FClear.1 mph70%30.42 "Hg10 mi
7:50 PM37 °FClear.2 mph65%30.42 "Hg10 mi
7:20 PM39 °FSunny.2 mph61%30.42 "Hg10 mi
6:50 PM41 °FSunny.3 mph57%30.42 "Hg10 mi
6:20 PM41 °FSunny.6 mph57%30.42 "Hg10 mi
5:50 PM43 °FScattered clouds.8 mph53%30.42 "HgN/A
5:20 PM45 °FScattered clouds.9 mph49%30.42 "HgN/A
4:50 PM45 °FScattered clouds.9 mph49%30.42 "HgN/A
4:20 PM45 °FScattered clouds.10 mph49%30.42 "HgN/A
3:50 PM45 °FScattered clouds.10 mph49%30.45 "HgN/A
3:20 PM45 °FScattered clouds.9 mph49%30.45 "HgN/A
2:50 PM45 °FPartly sunny.8 mph53%30.45 "HgN/A
2:20 PM45 °FPartly sunny.6 mph53%30.45 "HgN/A
1:50 PM45 °FPartly sunny.7 mph53%30.45 "HgN/A
1:20 PM45 °FPartly sunny.8 mph53%30.45 "HgN/A
12:50 PM43 °FPartly sunny.7 mph61%30.45 "HgN/A
12:20 PM43 °FPassing clouds.7 mph66%30.45 "HgN/A
11:50 AM43 °FPassing clouds.8 mph66%30.48 "HgN/A
11:20 AM41 °FPassing clouds.5 mph70%30.48 "HgN/A
10:50 AM39 °FSunny.6 mph75%30.48 "Hg10 mi
10:20 AM36 °FSunny.3 mph81%30.48 "Hg10 mi
9:50 AM32 °FSunny.1 mph93%30.48 "Hg10 mi
9:20 AM30 °FSunny.1 mph93%30.48 "Hg10 mi
8:50 AM28 °FSunny.No wind93%30.48 "Hg10 mi
8:20 AM25 °FClear.1 mph100%30.45 "Hg10 mi
7:50 AM23 °FClear.1 mph100%30.45 "Hg10 mi
7:20 AM25 °FIce fog.No wind93%30.45 "Hg1 mi
6:50 AM25 °FClear.No wind93%30.45 "Hg3 mi
6:20 AM25 °FClear.No wind93%30.45 "Hg10 mi
5:50 AM25 °FClear.1 mph93%30.45 "Hg10 mi
5:20 AM25 °FClear.1 mph100%30.45 "Hg10 mi
4:50 AM25 °FClear.1 mph93%30.45 "Hg10 mi
4:20 AM25 °FClear.1 mph93%30.45 "Hg10 mi
3:50 AM25 °FClear.1 mph100%30.45 "Hg10 mi
3:20 AM25 °FClear.1 mph93%30.45 "Hg10 mi
2:50 AM27 °FClear.1 mph93%30.45 "Hg10 mi
2:20 AM28 °FClear.1 mph93%30.45 "Hg10 mi
1:50 AM28 °FClear.2 mph93%30.45 "Hg10 mi
1:20 AM27 °FClear.1 mph93%30.45 "Hg10 mi
12:20 AM28 °FClear.1 mph93%30.45 "Hg10 mi
Weather by CustomWeather, © 2015

See weather overviewHow to use our weather pages